HI1010 SVMI-MDJB

Flight info

Callsign HI1010
Flight time 1h 22m
Altitude 36000
Route VADOR2 PULPO UA554 KABON UL216 POKAK UT20 KARIB
Aircraft C750/M-SBDE3FGHRWXY/S

Departure

Time 2026-04-25 21:13
Airport Maiquetía Simón Bolívar International Airport (SVMI)

Arrival

Time 2026-04-25 22:35
Airport La Isabela International Airport (MDJB)
Time Latitude Longitude Altitude Speed Heading
2026-04-25 20:54 10.59742 -66.99486 209 ft 0 kts 78°
2026-04-25 21:09 10.59743 -66.99486 236 ft 1 kts 78°
2026-04-25 21:10 10.59752 -66.99473 213 ft 3 kts 23°
2026-04-25 21:10 10.59777 -66.99478 210 ft 4 kts 347°
2026-04-25 21:10 10.59791 -66.99495 214 ft 3 kts 280°
2026-04-25 21:10 10.59793 -66.99509 209 ft 1 kts 278°
2026-04-25 21:11 10.59795 -66.99522 210 ft 2 kts 280°
2026-04-25 21:11 10.59801 -66.99555 211 ft 8 kts 280°
2026-04-25 21:11 10.59815 -66.99624 213 ft 9 kts 282°
2026-04-25 21:11 10.59806 -66.99690 215 ft 9 kts 269°
2026-04-25 21:12 10.59843 -66.99737 218 ft 8 kts 342°
2026-04-25 21:12 10.59887 -66.99699 217 ft 9 kts 69°
2026-04-25 21:12 10.59911 -66.99606 212 ft 24 kts 76°
2026-04-25 21:12 10.59965 -66.99372 204 ft 87 kts 75°
2026-04-25 21:13 10.60273 -66.98125 389 ft 153 kts 76°
2026-04-25 21:13 10.60482 -66.97105 1264 ft 138 kts 79°
2026-04-25 21:13 10.60656 -66.96164 2033 ft 141 kts 77°
2026-04-25 21:13 10.60878 -66.95153 2601 ft 151 kts 78°
2026-04-25 21:14 10.61096 -66.94074 3193 ft 159 kts 79°
2026-04-25 21:14 10.61318 -66.92950 3788 ft 166 kts 79°
2026-04-25 21:14 10.61627 -66.91792 4374 ft 175 kts 65°
2026-04-25 21:14 10.62446 -66.90855 4929 ft 184 kts 36°
2026-04-25 21:15 10.63661 -66.90408 5492 ft 191 kts
2026-04-25 21:15 10.64996 -66.90363 6134 ft 193 kts
2026-04-25 21:15 10.66347 -66.90312 6753 ft 196 kts
2026-04-25 21:15 10.67719 -66.90254 7355 ft 202 kts
2026-04-25 21:16 10.69180 -66.90197 7979 ft 212 kts
2026-04-25 21:16 10.70690 -66.90140 8605 ft 223 kts
2026-04-25 21:16 10.72251 -66.90079 9243 ft 231 kts
2026-04-25 21:16 10.73898 -66.90016 9885 ft 237 kts
2026-04-25 21:17 10.75538 -66.89952 10467 ft 241 kts
2026-04-25 21:17 10.77225 -66.89887 11049 ft 244 kts
2026-04-25 21:17 10.78933 -66.89821 11643 ft 247 kts
2026-04-25 21:17 10.80662 -66.89753 12246 ft 250 kts
2026-04-25 21:18 10.82435 -66.89684 12852 ft 262 kts
2026-04-25 21:18 10.84299 -66.89819 13396 ft 279 kts 344°
2026-04-25 21:18 10.86045 -66.90803 13954 ft 294 kts 326°
2026-04-25 21:18 10.87743 -66.92050 14582 ft 306 kts 324°
2026-04-25 21:19 10.89521 -66.93319 15215 ft 317 kts 326°
2026-04-25 21:19 10.91390 -66.94586 15850 ft 328 kts 326°
2026-04-25 21:19 10.93323 -66.95903 16485 ft 340 kts 326°
2026-04-25 21:19 10.95278 -66.97266 17110 ft 351 kts 325°
2026-04-25 21:20 10.97335 -66.98700 17763 ft 362 kts 325°
2026-04-25 21:20 10.98041 -66.99189 17974 ft 365 kts 325°
2026-04-25 21:20 11.01645 -67.01675 18942 ft 382 kts 325°
2026-04-25 21:20 11.03843 -67.03198 19509 ft 391 kts 325°
2026-04-25 21:21 11.06128 -67.04783 20095 ft 400 kts 325°
2026-04-25 21:21 11.08454 -67.06394 20691 ft 409 kts 325°
2026-04-25 21:21 11.10839 -67.08045 21300 ft 417 kts 325°
2026-04-25 21:21 11.13253 -67.09717 21914 ft 424 kts 325°
2026-04-25 21:22 11.15709 -67.11420 22544 ft 430 kts 325°
2026-04-25 21:22 11.18201 -67.13148 23194 ft 437 kts 325°
2026-04-25 21:22 11.20731 -67.14902 23779 ft 442 kts 325°
2026-04-25 21:22 11.23291 -67.16677 24322 ft 447 kts 324°
2026-04-25 21:23 11.25879 -67.18473 24879 ft 452 kts 324°
2026-04-25 21:23 11.28476 -67.20275 25442 ft 457 kts 324°
2026-04-25 21:23 11.31295 -67.21931 25986 ft 463 kts 334°
2026-04-25 21:23 11.34325 -67.23078 26550 ft 468 kts 342°
2026-04-25 21:24 11.37454 -67.24037 27167 ft 471 kts 342°
2026-04-25 21:24 11.40599 -67.25018 27790 ft 474 kts 342°
2026-04-25 21:24 11.43754 -67.26017 28420 ft 477 kts 341°
2026-04-25 21:24 11.46938 -67.27017 29069 ft 480 kts 342°
2026-04-25 21:25 11.50137 -67.28010 29722 ft 482 kts 342°
2026-04-25 21:25 11.53312 -67.29000 30310 ft 483 kts 341°
2026-04-25 21:25 11.56568 -67.30024 30879 ft 484 kts 341°
2026-04-25 21:25 11.59757 -67.31025 31453 ft 485 kts 341°
2026-04-25 21:26 11.62993 -67.32054 32039 ft 486 kts 341°
2026-04-25 21:26 11.66205 -67.33132 32639 ft 487 kts 340°
2026-04-25 21:26 11.69428 -67.34218 33252 ft 487 kts 340°
2026-04-25 21:26 11.72660 -67.35272 33876 ft 488 kts 341°
2026-04-25 21:27 11.75899 -67.36319 34430 ft 488 kts 340°
2026-04-25 21:27 11.79128 -67.37385 34992 ft 488 kts 340°
2026-04-25 21:27 11.82361 -67.38462 35569 ft 487 kts 340°
2026-04-25 21:27 11.85599 -67.39529 36005 ft 491 kts 340°
2026-04-25 21:28 11.91127 -67.41343 35996 ft 513 kts 340°
2026-04-25 21:28 11.94568 -67.42479 36009 ft 524 kts 340°
2026-04-25 21:28 11.98065 -67.43634 36016 ft 533 kts 340°
2026-04-25 21:29 12.05215 -67.45989 36013 ft 545 kts 340°
2026-04-25 21:29 12.12476 -67.48387 36007 ft 552 kts 340°
2026-04-25 21:30 12.19838 -67.50818 36009 ft 556 kts 340°
2026-04-25 21:30 12.25980 -67.52847 36008 ft 557 kts 340°
2026-04-25 21:31 12.34552 -67.55682 36008 ft 557 kts 340°
2026-04-25 21:31 12.41931 -67.58123 36012 ft 557 kts 340°
2026-04-25 21:32 12.49302 -67.60563 36013 ft 556 kts 340°
2026-04-25 21:32 12.56670 -67.63004 36012 ft 556 kts 340°
2026-04-25 21:33 12.64033 -67.65444 36011 ft 555 kts 340°
2026-04-25 21:33 12.71393 -67.67885 36015 ft 555 kts 339°
2026-04-25 21:34 12.78694 -67.70324 36014 ft 554 kts 339°
2026-04-25 21:34 12.86009 -67.72849 36009 ft 554 kts 339°
2026-04-25 21:35 12.93322 -67.75320 36015 ft 553 kts 339°
2026-04-25 21:35 13.00639 -67.77829 36018 ft 553 kts 339°
2026-04-25 21:36 13.07941 -67.80313 36015 ft 553 kts 339°
2026-04-25 21:36 13.15222 -67.82835 36017 ft 552 kts 338°
2026-04-25 21:37 13.21287 -67.84934 36018 ft 553 kts 339°
2026-04-25 21:37 13.29816 -67.87879 36019 ft 553 kts 338°
2026-04-25 21:38 13.37121 -67.90391 36018 ft 553 kts 339°
2026-04-25 21:38 13.44427 -67.92899 36022 ft 553 kts 338°
2026-04-25 21:39 13.51687 -67.95401 36021 ft 554 kts 338°
2026-04-25 21:39 13.58998 -67.97913 36022 ft 554 kts 338°
2026-04-25 21:40 13.66311 -68.00435 36022 ft 554 kts 338°
2026-04-25 21:40 13.73632 -68.02957 36018 ft 554 kts 338°
2026-04-25 21:41 13.80961 -68.05486 36020 ft 554 kts 338°
2026-04-25 21:41 13.88267 -68.08007 36020 ft 554 kts 338°
2026-04-25 21:42 13.95581 -68.10533 36026 ft 554 kts 338°
2026-04-25 21:42 14.02890 -68.13059 36024 ft 554 kts 338°
2026-04-25 21:43 14.10202 -68.15587 36027 ft 553 kts 338°
2026-04-25 21:43 14.17489 -68.18109 36017 ft 552 kts 338°
2026-04-25 21:44 14.24952 -68.19976 36017 ft 557 kts 346°
2026-04-25 21:45 14.36062 -68.22250 36027 ft 555 kts 344°
2026-04-25 21:45 14.43647 -68.23828 36028 ft 555 kts 346°
2026-04-25 21:46 14.51213 -68.25400 36027 ft 554 kts 345°
2026-04-25 21:46 14.58774 -68.26991 36029 ft 553 kts 345°
2026-04-25 21:47 14.66280 -68.28546 36029 ft 553 kts 345°
2026-04-25 21:47 14.73857 -68.30143 36030 ft 552 kts 345°
2026-04-25 21:48 14.81409 -68.31699 36027 ft 552 kts 345°
2026-04-25 21:48 14.88939 -68.33265 36034 ft 552 kts 345°
2026-04-25 21:49 14.96421 -68.34814 36028 ft 552 kts 345°
2026-04-25 21:49 15.03940 -68.36377 36032 ft 552 kts 345°
2026-04-25 21:50 15.11490 -68.37945 36032 ft 552 kts 345°
2026-04-25 21:50 15.19043 -68.39515 36032 ft 552 kts 345°
2026-04-25 21:51 15.26595 -68.41098 36036 ft 553 kts 344°
2026-04-25 21:51 15.34141 -68.42703 36036 ft 553 kts 344°
2026-04-25 21:52 15.41695 -68.44293 36033 ft 554 kts 344°
2026-04-25 21:52 15.49206 -68.45887 36031 ft 554 kts 344°
2026-04-25 21:53 15.56788 -68.47490 36038 ft 555 kts 344°
2026-04-25 21:53 15.64358 -68.49096 36037 ft 556 kts 344°
2026-04-25 21:54 15.71934 -68.50702 36040 ft 556 kts 343°
2026-04-25 21:54 15.79500 -68.52309 36029 ft 557 kts 343°
2026-04-25 21:55 15.87126 -68.53928 36033 ft 557 kts 343°
2026-04-25 21:55 15.94681 -68.55534 36036 ft 557 kts 343°
2026-04-25 21:56 16.02104 -68.57549 36014 ft 547 kts 333°
2026-04-25 21:56 16.09050 -68.60737 36037 ft 545 kts 330°
2026-04-25 21:57 16.16058 -68.63819 36037 ft 545 kts 332°
2026-04-25 21:57 16.22886 -68.66887 36036 ft 542 kts 330°
2026-04-25 21:58 16.29681 -68.69931 36036 ft 541 kts 331°
2026-04-25 21:58 16.36572 -68.73001 36033 ft 536 kts 330°
2026-04-25 21:59 16.43152 -68.75966 36031 ft 533 kts 331°
2026-04-25 21:59 16.49970 -68.79008 36028 ft 531 kts 330°
2026-04-25 22:00 16.60133 -68.83574 36032 ft 529 kts 330°
2026-04-25 22:00 16.66893 -68.86613 36027 ft 528 kts 330°
2026-04-25 22:01 16.73650 -68.89650 36033 ft 528 kts 330°
2026-04-25 22:01 16.79259 -68.92172 36038 ft 528 kts 330°
2026-04-25 22:02 16.87157 -68.95729 36040 ft 528 kts 330°
2026-04-25 22:02 16.93861 -68.98750 36037 ft 527 kts 330°
2026-04-25 22:03 17.00605 -69.01791 36038 ft 527 kts 330°
2026-04-25 22:03 17.07344 -69.04832 36041 ft 526 kts 330°
2026-04-25 22:04 17.14016 -69.07846 36038 ft 526 kts 330°
2026-04-25 22:04 17.20730 -69.10880 36036 ft 525 kts 330°
2026-04-25 22:05 17.27413 -69.13903 36039 ft 525 kts 330°
2026-04-25 22:05 17.34154 -69.16955 36040 ft 524 kts 330°
2026-04-25 22:06 17.40875 -69.20000 36039 ft 524 kts 330°
2026-04-25 22:06 17.47537 -69.23022 36039 ft 524 kts 330°
2026-04-25 22:07 17.52014 -69.25053 36037 ft 524 kts 330°
2026-04-25 22:07 17.59296 -69.28360 36043 ft 524 kts 330°
2026-04-25 22:08 17.66037 -69.31433 36038 ft 523 kts 329°
2026-04-25 22:08 17.72351 -69.35099 36037 ft 517 kts 323°
2026-04-25 22:09 17.78615 -69.38820 36039 ft 518 kts 324°
2026-04-25 22:09 17.84886 -69.42553 36031 ft 517 kts 323°
2026-04-25 22:10 17.91153 -69.46294 36033 ft 517 kts 324°
2026-04-25 22:10 17.97153 -69.49867 36041 ft 517 kts 323°
2026-04-25 22:11 18.03207 -69.53487 36038 ft 517 kts 323°
2026-04-25 22:11 18.09544 -69.57269 36040 ft 516 kts 323°
2026-04-25 22:12 18.15791 -69.61008 36031 ft 516 kts 323°
2026-04-25 22:12 18.20983 -69.64113 36030 ft 516 kts 323°
2026-04-25 22:13 18.28041 -69.68342 36034 ft 515 kts 323°
2026-04-25 22:13 18.33818 -69.71804 36033 ft 515 kts 323°
2026-04-25 22:14 18.40049 -69.75542 36035 ft 514 kts 323°
2026-04-25 22:14 18.46232 -69.79255 36033 ft 514 kts 323°
2026-04-25 22:15 18.51493 -69.82417 36030 ft 514 kts 323°
2026-04-25 22:16 18.60717 -69.87970 34952 ft 512 kts 323°
2026-04-25 22:16 18.63761 -69.89778 34310 ft 485 kts 323°
2026-04-25 22:16 18.66637 -69.91505 33647 ft 464 kts 323°
2026-04-25 22:16 18.69094 -69.93500 32786 ft 431 kts 307°
2026-04-25 22:17 18.70600 -69.96093 31965 ft 403 kts 287°
2026-04-25 22:17 18.70999 -69.98915 31209 ft 383 kts 266°
2026-04-25 22:17 18.70301 -70.01530 30506 ft 374 kts 245°
2026-04-25 22:17 18.68651 -70.03580 29803 ft 375 kts 223°
2026-04-25 22:18 18.66279 -70.04752 29008 ft 384 kts 200°
2026-04-25 22:18 18.63595 -70.04804 28243 ft 396 kts 177°
2026-04-25 22:18 18.61136 -70.03975 27619 ft 398 kts 165°
2026-04-25 22:18 18.58565 -70.02762 27014 ft 390 kts 162°
2026-04-25 22:19 18.56250 -70.01702 26445 ft 381 kts 164°
2026-04-25 22:19 18.53780 -70.00763 25824 ft 372 kts 168°
2026-04-25 22:19 18.51306 -70.00102 25162 ft 360 kts 178°
2026-04-25 22:19 18.48889 -70.00321 24384 ft 344 kts 202°
2026-04-25 22:20 18.46866 -70.01584 23407 ft 339 kts 226°
2026-04-25 22:20 18.45626 -70.03671 22313 ft 337 kts 252°
2026-04-25 22:20 18.45447 -70.06085 21384 ft 337 kts 277°
2026-04-25 22:20 18.46225 -70.08391 21101 ft 322 kts 296°
2026-04-25 22:21 18.47571 -70.10169 20540 ft 321 kts 315°
2026-04-25 22:21 18.49613 -70.11248 19780 ft 332 kts 338°
2026-04-25 22:21 18.51882 -70.11756 19165 ft 333 kts 346°
2026-04-25 22:21 18.54166 -70.12107 18563 ft 331 kts 347°
2026-04-25 22:22 18.56450 -70.12423 17912 ft 330 kts 348°
2026-04-25 22:22 18.58723 -70.12735 17197 ft 328 kts 348°
2026-04-25 22:22 18.60946 -70.13050 16502 ft 327 kts 348°
2026-04-25 22:22 18.63203 -70.13378 15795 ft 325 kts 348°
2026-04-25 22:23 18.64157 -70.13520 15500 ft 325 kts 348°
2026-04-25 22:23 18.66023 -70.13803 14929 ft 323 kts 348°
2026-04-25 22:23 18.68258 -70.14152 14266 ft 322 kts 348°
2026-04-25 22:23 18.70468 -70.14509 13585 ft 320 kts 348°
2026-04-25 22:24 18.72660 -70.14874 12855 ft 317 kts 348°
2026-04-25 22:24 18.74829 -70.15246 12142 ft 315 kts 348°
2026-04-25 22:24 18.76987 -70.15625 11448 ft 312 kts 348°
2026-04-25 22:24 18.79124 -70.16015 10765 ft 310 kts 348°
2026-04-25 22:25 18.81218 -70.16406 10095 ft 297 kts 348°
2026-04-25 22:25 18.83193 -70.16779 9390 ft 281 kts 348°
2026-04-25 22:25 18.85080 -70.17138 8684 ft 269 kts 348°
2026-04-25 22:25 18.86854 -70.17010 8414 ft 245 kts 18°
2026-04-25 22:26 18.88134 -70.16014 8396 ft 216 kts 46°
2026-04-25 22:26 18.89047 -70.14907 8481 ft 189 kts 48°
2026-04-25 22:26 18.89879 -70.13901 8570 ft 186 kts 48°
2026-04-25 22:26 18.90815 -70.12774 8561 ft 222 kts 48°
2026-04-25 22:27 18.91899 -70.11475 8588 ft 250 kts 48°
2026-04-25 22:27 18.93013 -70.10019 8227 ft 258 kts 59°
2026-04-25 22:27 18.93389 -70.08153 7728 ft 266 kts 95°
2026-04-25 22:27 18.92719 -70.06383 7276 ft 257 kts 125°
2026-04-25 22:28 18.91548 -70.05015 6918 ft 246 kts 139°
2026-04-25 22:28 18.90208 -70.03862 6311 ft 250 kts 142°
2026-04-25 22:28 18.88966 -70.02850 5814 ft 250 kts 143°
2026-04-25 22:28 18.87590 -70.01739 5295 ft 247 kts 143°
2026-04-25 22:29 18.86212 -70.00711 4761 ft 245 kts 150°
2026-04-25 22:29 18.84626 -70.00075 4267 ft 241 kts 163°
2026-04-25 22:29 18.83049 -69.99561 3882 ft 234 kts 161°
2026-04-25 22:30 18.80095 -69.98500 3471 ft 210 kts 161°
2026-04-25 22:30 18.78747 -69.98006 3471 ft 202 kts 161°
2026-04-25 22:30 18.77427 -69.97545 3463 ft 198 kts 165°
2026-04-25 22:30 18.76545 -69.97356 3482 ft 194 kts 168°
2026-04-25 22:31 18.74799 -69.96857 3248 ft 201 kts 164°
2026-04-25 22:31 18.73409 -69.96545 2996 ft 207 kts 173°
2026-04-25 22:31 18.71964 -69.96585 2752 ft 210 kts 186°
2026-04-25 22:31 18.70516 -69.96826 2497 ft 209 kts 189°
2026-04-25 22:32 18.69075 -69.97088 2055 ft 209 kts 188°
2026-04-25 22:32 18.67758 -69.97263 1602 ft 168 kts 186°
2026-04-25 22:32 18.66747 -69.97400 1411 ft 132 kts 187°
2026-04-25 22:32 18.65781 -69.97534 1397 ft 146 kts 186°
2026-04-25 22:33 18.64798 -69.97677 1399 ft 135 kts 187°
2026-04-25 22:33 18.63887 -69.97779 1253 ft 128 kts 185°
2026-04-25 22:33 18.63061 -69.97890 1075 ft 115 kts 189°
2026-04-25 22:33 18.62278 -69.97994 850 ft 118 kts 188°
2026-04-25 22:34 18.61469 -69.98112 770 ft 114 kts 185°
2026-04-25 22:34 18.60630 -69.98190 684 ft 130 kts 184°
2026-04-25 22:34 18.59734 -69.98273 516 ft 129 kts 186°
2026-04-25 22:34 18.58833 -69.98382 306 ft 131 kts 184°
2026-04-25 22:35 18.57996 -69.98479 125 ft 113 kts 185°
2026-04-25 22:35 18.57292 -69.98559 97 ft 88 kts 186°
2026-04-25 22:35 18.56911 -69.98605 94 ft 28 kts 187°
2026-04-25 22:35 18.56745 -69.98625 95 ft 20 kts 186°
2026-04-25 22:36 18.56696 -69.98637 94 ft 2 kts 128°
2026-04-25 22:36 18.56723 -69.98624 94 ft 9 kts
2026-04-25 22:36 18.56825 -69.98616 94 ft 20 kts
2026-04-25 22:36 18.56975 -69.98598 95 ft 22 kts
2026-04-25 22:37 18.57124 -69.98581 96 ft 17 kts
2026-04-25 22:37 18.57234 -69.98560 96 ft 15 kts 27°
2026-04-25 22:37 18.57316 -69.98498 98 ft 14 kts 36°
2026-04-25 22:37 18.57393 -69.98438 99 ft 13 kts 36°
2026-04-25 22:38 18.57469 -69.98381 99 ft 13 kts 36°
2026-04-25 22:38 18.57520 -69.98341 99 ft 9 kts 37°
2026-04-25 22:38 18.57572 -69.98327 99 ft 0 kts
2026-04-25 22:38 18.57583 -69.98328 99 ft 3 kts 345°
2026-04-25 22:39 18.57591 -69.98347 99 ft 3 kts 277°
2026-04-25 22:39 18.57593 -69.98361 99 ft 1 kts 295°
2026-04-25 22:39 18.57601 -69.98363 99 ft 2 kts 349°
2026-04-25 22:39 18.57608 -69.98354 99 ft 1 kts 74°
2026-04-25 22:40 18.57608 -69.98351 99 ft 0 kts 91°